Location: Lafig�re
(44.4503°N, 4.0357°E)
Time: 16:24:26
(UTC+00:00)

Cosmos 1464 Rocket - Pass Details

Date: 24 September 2020
Orbit: 953 x 1000 km, 82.9° (Epoch: 25 October)

Event Time Altitude Azimuth Distance (km) Brightness Sun altitude
Rises 18:45:32 0° 190° (S) 3,616 7.0 -13.0°
Reaches altitude 10° 18:48:01 10° 192° (SSW) 2,676 6.3 -13.4°
Maximum altitude 18:54:08 77° 279° (W) 987 4.1 -14.5°
Drops below altitude 10° 19:00:22 10° 6° (N) 2,717 6.4 -15.6°
Sets 19:02:54 0° 8° (N) 3,674 7.1 -16.0°
